Location: Wien
(48.2082°N, 16.3738°E)
Time: 11:37:23
(UTC+01:00)

Envisat - Pass Details

Date: 23 October 2019
Orbit: 764 x 766 km, 98.1° (Epoch: 20 November)

Event Time Altitude Azimuth Distance (km) Brightness Sun altitude
Rises 19:18:07 0° 179° (S) 3,220 6.2 -15.1°
Reaches altitude 10° 19:20:29 10° 185° (S) 2,298 5.5 -15.4°
Maximum altitude 19:25:24 50° 261° (W) 968 3.9 -16.3°
Drops below altitude 10° 19:30:22 10° 337° (NNW) 2,315 5.8 -17.1°
Sets 19:32:45 0° 342° (NNW) 3,245 6.5 -17.5°
